Location: Kutna Hora
(49.9500°N, 15.2670°E)
Time: 15:11:35
(UTC+02:00)

ISS - Pass Details

Date: 26 May 2019
Orbit: 407 x 418 km, 51.6° (Epoch: 20 June)

Event Time Altitude Azimuth Distance (km) Brightness Sun altitude
Rises 22:33:02 0° 282° (WNW) 2,356 0.8 -12.1°
Reaches altitude 10° 22:35:08 10° 285° (WNW) 1,495 -0.2 -12.3°
Maximum altitude 22:38:29 71° 9° (N) 446 -3.5 -12.6°
Enters shadow 22:41:44 11° 95° (E) 1,457 -1.4 -12.9°
